User: anonymous   Login
Location: Chevoux
(46.3801°N, 4.9476°E)
Time: 11:39:41
(UTC+00:00)
Language:

Altair - Orbit

View from above orbital plane
View from above orbital plane
View from above satellite
View from above satellite

Ground track
Ground track

The orbit data is extracted from the following two-line orbital elements,

1 00050U 60009B   21132.80644611 -.00000082  00000-0  26828-4 0  9990
2 00050  47.2302 179.0682 0114494 227.4154 131.6929 12.20117113710431
Epoch (UTC): 12 May 2021 19:21:16
Eccentricity: 0.0114494
inclination: 47.2302°
perigee height: 1501 km
apogee height: 1683 km
right ascension of ascending node: 179.0682°
argument of perigee: 227.4154°
revolutions per day: 12.20117113
mean anomaly at epoch: 131.6929°
orbit number at epoch: 71043

The dashed part of the orbit path shows where the satellite is in the earth's shadow,  

DLR